Weather History for St. John's, NL

Change the Weather History Date:

Monday, May 27, 2013

  Actual Average Record
Temperature  
Mean Temperature 58 °F -  
Max Temperature 67 °F 59 °F 71 °F (2011)
Min Temperature 48 °F 42 °F 32 °F (2001)
Degree Days  
Heating Degree Days 6    
Growing Degree Days 8 (Base 50)    
Moisture  
Dew Point 52 °F    
Average Humidity 84    
Maximum Humidity 100    
Minimum Humidity 46    
Precipitation  
Precipitation 0.24 in 0.13 in - ()
Sea Level Pressure  
Sea Level Pressure 30.07 in    
Wind  
Wind Speed 15 mph ()    
Max Wind Speed 25 mph    
Max Gust Speed 37 mph    
Visibility 14.6 miles    
Events Rain    
Averages and records for this station are not official NWS values.
T = Trace of Precipitation, MM = Missing Value Source: Averaged Metar Reports

Daily Weather History Graph

Daily Weather History Graph

Search for Another Location

Airport:

Trip Planner

Search our weather history database for the weather conditions in past years. The results will help you decide how hot, cold, wet, or windy it might be!

Date:

Astronomy

May. 27, 2013 Rise Set
Actual Time 5:10 AM NDT 8:46 PM NDT
Civil Twilight 4:32 AM NDT 9:24 PM NDT
Nautical Twilight 3:40 AM NDT 10:16 PM NDT
Astronomical Twilight 2:30 AM NDT 11:28 PM NDT
Moon 11:15 PM NDT (5/27) 7:43 AM NDT (5/27)
Length of Visible Light 16h 52m
Length of Day
15h 35m
Waning Gibbous, 91% of the Moon is Illuminated
May 27
Waning Gibbous
May 31
Last Quarter
Jun 8
New
Jun 16
First Quarter
Jun 23
Full

Hourly Weather History & Observations

Time (NDT) Temp. Dew Point Humidity Pressure Visibility Wind Dir Wind Speed Gust Speed Precip Events Conditions
12:30 AM 53.6 °F 53.6 °F 100% 30.16 in 15.0 mi South 20.7 mph - N/A   Light Drizzle
1:12 AM 53.6 °F 53.6 °F 100% 30.14 in 15.0 mi South 16.1 mph 24.2 mph N/A   Overcast
1:30 AM 53.6 °F 53.6 °F 100% 30.13 in 15.0 mi South 17.3 mph 26.5 mph N/A   Overcast
1:54 AM 53.6 °F 53.6 °F 100% 30.12 in 15.0 mi South 23.0 mph - N/A   Light Drizzle
2:30 AM 53.6 °F 53.6 °F 100% 30.11 in 12.0 mi SSW 21.9 mph 29.9 mph N/A   Light Drizzle
2:53 AM 53.6 °F 53.6 °F 100% 30.10 in 15.0 mi South 18.4 mph 31.1 mph N/A Rain Light Rain
3:30 AM 52 °F 52 °F 100% 30.10 in 12 mi SSW 17.3 mph - - Rain Light Rain
3:30 AM 51.8 °F 51.8 °F 100% 30.10 in 12.0 mi SSW 17.3 mph 23.0 mph N/A Rain Light Rain
3:42 AM 51.8 °F 51.8 °F 100% 30.10 in 15.0 mi South 16.1 mph - N/A Rain Light Rain
4:30 AM 51.8 °F 51.8 °F 100% 30.09 in 12.0 mi SSW 12.7 mph 18.4 mph N/A Rain Light Rain
5:30 AM 51.8 °F 51.8 °F 100% 30.08 in 12.0 mi SSW 10.4 mph - N/A Rain Light Rain
6:30 AM 51.8 °F 51.8 °F 100% 30.07 in 15.0 mi SW 6.9 mph - N/A Rain Light Rain
7:05 AM 53.6 °F 53.6 °F 100% 30.08 in 15.0 mi WSW 9.2 mph - N/A   Mostly Cloudy
7:30 AM 55.4 °F 53.6 °F 94% 30.08 in 15.0 mi SSW 9.2 mph - N/A   Mostly Cloudy
8:30 AM 59.0 °F 57.2 °F 94% 30.07 in 15.0 mi SW 9.2 mph - N/A   Mostly Cloudy
8:53 AM 59.0 °F 59.0 °F 100% 30.07 in 15.0 mi SW 10.4 mph 19.6 mph N/A   Overcast
9:30 AM 61 °F 59 °F 89% 30.07 in 15 mi SW 13.8 mph - -   Partly Cloudy
9:30 AM 60.8 °F 59.0 °F 94% 30.07 in 15.0 mi SW 15.0 mph 23.0 mph N/A   Overcast
10:30 AM 59.0 °F 57.2 °F 94% 30.07 in 15.0 mi WSW 15.0 mph - N/A   Mostly Cloudy
10:49 AM 62.6 °F 57.2 °F 82% 30.07 in 15.0 mi WSW 13.8 mph 20.7 mph N/A   Mostly Cloudy
11:30 AM 64.4 °F 55.4 °F 73% 30.07 in 15.0 mi SSW 18.4 mph 25.3 mph N/A   Mostly Cloudy
12:30 PM 64.4 °F 55.4 °F 73% 30.06 in 15.0 mi WSW 17.3 mph - N/A   Mostly Cloudy
1:30 PM 66.2 °F 55.4 °F 68% 30.05 in 15.0 mi SW 15.0 mph 35.7 mph N/A   Mostly Cloudy
2:30 PM 62.6 °F 53.6 °F 72% 30.04 in 15.0 mi SW 24.2 mph 29.9 mph N/A   Mostly Cloudy
3:30 PM 64 °F 48 °F 46% 30.04 in 15 mi SSW 25.3 mph - -   Scattered Clouds
3:30 PM 64.4 °F 48.2 °F 56% 30.03 in 15.0 mi SSW 23.0 mph 36.8 mph N/A   Mostly Cloudy
4:30 PM 62.6 °F 48.2 °F 59% 30.03 in 15.0 mi West 16.1 mph 25.3 mph N/A   Mostly Cloudy
5:30 PM 60.8 °F 46.4 °F 59% 30.04 in 15.0 mi WSW 18.4 mph 24.2 mph N/A   Mostly Cloudy
6:30 PM 59.0 °F 44.6 °F 59% 30.05 in 15.0 mi WSW 21.9 mph 28.8 mph N/A   Mostly Cloudy
7:30 PM 57.2 °F 46.4 °F 67% 30.05 in 15.0 mi WSW 20.7 mph - N/A   Mostly Cloudy
8:30 PM 55.4 °F 46.4 °F 72% 30.04 in 15.0 mi WSW 15.0 mph 21.9 mph N/A   Mostly Cloudy
9:30 PM 52 °F 45 °F 69% 30.06 in 15 mi SW 10.4 mph - -   Mostly Cloudy
9:30 PM 51.8 °F 44.6 °F 76% 30.05 in 15.0 mi WSW 9.2 mph - N/A   Mostly Cloudy
10:30 PM 50.0 °F 42.8 °F 76% 30.06 in 15.0 mi WSW 10.4 mph - N/A   Scattered Clouds
11:30 PM 48.2 °F 42.8 °F 82% 30.06 in 15.0 mi WSW 9.2 mph - N/A   Mostly Cloudy